Time,TemperatureF,DewpointF,PressureIn,WindDirection,WindDirectionDegrees,WindSpeedMPH,WindSpeedGustMPH,Humidity,HourlyPrecipIn,Conditions,Clouds,dailyrainin,SoftwareType,DateUTC
2013-07-27 00:02:00,72.0,60.0,30.26,ENE,63,1.0,3.0,67,0.00,,,0.08,,2013-07-27 05:02:00,
2013-07-27 00:12:00,72.0,60.0,30.26,ENE,63,1.0,3.0,67,0.00,,,0.08,,2013-07-27 05:12:00,
2013-07-27 00:22:00,73.0,61.0,30.26,ENE,64,1.0,2.0,66,0.00,,,0.08,,2013-07-27 05:22:00,
2013-07-27 00:32:00,73.0,61.0,30.26,ENE,64,1.0,2.0,66,0.00,,,0.08,,2013-07-27 05:32:00,
2013-07-27 00:43:00,73.0,61.0,30.26,ENE,64,1.0,2.0,66,0.00,,,0.08,,2013-07-27 05:43:00,
2013-07-27 00:52:00,72.0,60.0,30.25,NE,42,0.0,0.0,67,0.00,,,0.08,,2013-07-27 05:52:00,
2013-07-27 01:02:00,72.0,60.0,30.25,NE,42,0.0,0.0,67,0.00,,,0.08,,2013-07-27 06:02:00,
2013-07-27 01:12:00,72.0,60.0,30.25,NE,42,0.0,0.0,67,0.00,,,0.08,,2013-07-27 06:12:00,
2013-07-27 01:22:00,71.0,61.0,30.26,NE,42,0.0,1.0,70,0.00,,,0.08,,2013-07-27 06:22:00,
2013-07-27 01:33:00,71.0,61.0,30.26,NE,42,0.0,1.0,70,0.00,,,0.08,,2013-07-27 06:33:00,
2013-07-27 01:43:00,71.0,61.0,30.26,NE,42,0.0,1.0,70,0.00,,,0.08,,2013-07-27 06:43:00,
2013-07-27 01:52:00,72.0,61.0,30.26,NNE,18,1.0,5.0,69,0.00,,,0.08,,2013-07-27 06:52:00,
2013-07-27 02:02:00,72.0,61.0,30.26,NNE,18,1.0,5.0,69,0.00,,,0.08,,2013-07-27 07:02:00,
2013-07-27 02:12:00,72.0,61.0,30.26,NNE,18,1.0,5.0,69,0.00,,,0.08,,2013-07-27 07:12:00,
2013-07-27 02:22:00,71.0,61.0,30.26,NNW,329,1.0,3.0,70,0.00,,,0.08,,2013-07-27 07:22:00,
2013-07-27 02:33:00,71.0,61.0,30.26,NNW,329,1.0,3.0,70,0.00,,,0.08,,2013-07-27 07:33:00,
2013-07-27 02:44:00,71.0,61.0,30.26,NNW,329,1.0,3.0,70,0.00,,,0.08,,2013-07-27 07:44:00,
2013-07-27 02:52:00,71.0,62.0,30.25,ESE,103,0.0,2.0,72,0.00,,,0.08,,2013-07-27 07:52:00,
2013-07-27 03:02:00,71.0,62.0,30.25,ESE,103,0.0,2.0,72,0.00,,,0.08,,2013-07-27 08:02:00,
2013-07-27 03:12:00,71.0,62.0,30.25,ESE,103,0.0,2.0,72,0.00,,,0.08,,2013-07-27 08:12:00,
2013-07-27 03:22:00,71.0,62.0,30.24,NNE,24,1.0,9.0,72,0.00,,,0.08,,2013-07-27 08:22:00,
2013-07-27 03:32:00,71.0,62.0,30.24,NNE,24,1.0,9.0,72,0.00,,,0.08,,2013-07-27 08:32:00,
2013-07-27 03:43:00,71.0,62.0,30.24,NNE,24,1.0,9.0,72,0.00,,,0.08,,2013-07-27 08:43:00,
2013-07-27 03:53:00,70.0,61.0,30.24,NW,313,0.0,4.0,72,0.00,,,0.08,,2013-07-27 08:53:00,
2013-07-27 04:02:00,70.0,61.0,30.24,NW,313,0.0,4.0,72,0.00,,,0.08,,2013-07-27 09:02:00,
2013-07-27 04:12:00,70.0,61.0,30.24,NW,313,0.0,4.0,72,0.00,,,0.08,,2013-07-27 09:12:00,
2013-07-27 04:22:00,70.0,61.0,30.23,ENE,74,0.0,7.0,72,0.00,,,0.08,,2013-07-27 09:22:00,
2013-07-27 04:33:00,70.0,61.0,30.23,ENE,74,0.0,7.0,72,0.00,,,0.08,,2013-07-27 09:33:00,
2013-07-27 04:44:00,70.0,61.0,30.23,ENE,74,0.0,7.0,72,0.00,,,0.08,,2013-07-27 09:44:00,
2013-07-27 04:52:00,70.0,61.0,30.24,WNW,284,1.0,5.0,72,0.00,,,0.08,,2013-07-27 09:52:00,
2013-07-27 05:02:00,70.0,61.0,30.24,WNW,284,1.0,5.0,72,0.00,,,0.08,,2013-07-27 10:02:00,
2013-07-27 05:12:00,70.0,61.0,30.24,WNW,284,1.0,5.0,72,0.00,,,0.08,,2013-07-27 10:12:00,
2013-07-27 05:22:00,71.0,60.0,30.24,NNE,17,6.0,11.0,68,0.00,,,0.08,,2013-07-27 10:22:00,
2013-07-27 05:32:00,71.0,60.0,30.24,NNE,17,6.0,11.0,68,0.00,,,0.08,,2013-07-27 10:32:00,
2013-07-27 05:44:00,71.0,60.0,30.24,NNE,17,6.0,11.0,68,0.00,,,0.08,,2013-07-27 10:44:00,
2013-07-27 05:52:00,71.0,59.0,30.25,NNE,14,1.0,12.0,67,0.00,,,0.08,,2013-07-27 10:52:00,
2013-07-27 06:02:00,71.0,59.0,30.25,NNE,14,1.0,12.0,67,0.00,,,0.08,,2013-07-27 11:02:00,
2013-07-27 06:12:00,71.0,59.0,30.25,NNE,14,1.0,12.0,67,0.00,,,0.08,,2013-07-27 11:12:00,
2013-07-27 06:22:00,70.0,60.0,30.26,SW,222,2.0,5.0,70,0.00,,,0.08,,2013-07-27 11:22:00,
2013-07-27 06:32:00,70.0,60.0,30.26,SW,222,2.0,5.0,70,0.00,,,0.08,,2013-07-27 11:32:00,
2013-07-27 06:44:00,70.0,60.0,30.26,SW,222,2.0,5.0,70,0.00,,,0.08,,2013-07-27 11:44:00,
2013-07-27 06:53:00,69.0,60.0,30.26,South,186,1.0,10.0,73,0.00,,,0.08,,2013-07-27 11:53:00,
2013-07-27 07:02:00,69.0,60.0,30.26,South,186,1.0,10.0,73,0.00,,,0.08,,2013-07-27 12:02:00,
2013-07-27 07:12:00,69.0,60.0,30.26,South,186,1.0,10.0,73,0.00,,,0.08,,2013-07-27 12:12:00,
2013-07-27 07:22:00,68.0,61.0,30.27,North,10,0.0,3.0,78,0.00,,,0.08,,2013-07-27 12:22:00,
2013-07-27 07:33:00,68.0,61.0,30.27,North,10,0.0,3.0,78,0.00,,,0.08,,2013-07-27 12:33:00,
2013-07-27 07:43:00,68.0,61.0,30.27,North,10,0.0,3.0,78,0.00,,,0.08,,2013-07-27 12:43:00,
2013-07-27 07:52:00,67.0,62.0,30.27,SE,140,0.0,9.0,83,0.00,,,0.08,,2013-07-27 12:52:00,
2013-07-27 08:02:00,67.0,62.0,30.27,SE,140,0.0,9.0,83,0.00,,,0.08,,2013-07-27 13:02:00,
2013-07-27 08:12:00,67.0,62.0,30.27,SE,140,0.0,9.0,83,0.00,,,0.08,,2013-07-27 13:12:00,
2013-07-27 08:22:00,67.0,62.0,30.27,SE,134,2.0,7.0,84,0.00,,,0.08,,2013-07-27 13:22:00,
2013-07-27 08:32:00,67.0,62.0,30.27,SE,134,2.0,7.0,84,0.00,,,0.08,,2013-07-27 13:32:00,
2013-07-27 08:44:00,67.0,62.0,30.27,SE,134,2.0,7.0,84,0.00,,,0.08,,2013-07-27 13:44:00,
2013-07-27 08:53:00,67.0,62.0,30.27,NW,318,0.0,3.0,83,0.00,,,0.08,,2013-07-27 13:53:00,
2013-07-27 09:02:00,67.0,62.0,30.27,NW,318,0.0,3.0,83,0.00,,,0.08,,2013-07-27 14:02:00,
2013-07-27 09:12:00,67.0,62.0,30.27,NW,318,0.0,3.0,83,0.00,,,0.08,,2013-07-27 14:12:00,
2013-07-27 09:22:00,68.0,62.0,30.28,ESE,121,1.0,4.0,82,0.00,,,0.08,,2013-07-27 14:22:00,
2013-07-27 09:32:00,68.0,62.0,30.28,ESE,121,1.0,4.0,82,0.00,,,0.08,,2013-07-27 14:32:00,
2013-07-27 09:44:00,68.0,62.0,30.28,ESE,121,1.0,4.0,82,0.00,,,0.08,,2013-07-27 14:44:00,
2013-07-27 09:54:00,69.0,63.0,30.29,ESE,113,2.0,5.0,80,0.00,,,0.08,,2013-07-27 14:54:00,
2013-07-27 10:02:00,69.0,63.0,30.29,ESE,113,2.0,5.0,80,0.00,,,0.08,,2013-07-27 15:02:00,
2013-07-27 10:12:00,69.0,63.0,30.29,ESE,113,2.0,5.0,80,0.00,,,0.08,,2013-07-27 15:12:00,
2013-07-27 10:22:00,70.0,63.0,30.29,ESE,105,2.0,5.0,79,0.00,,,0.08,,2013-07-27 15:22:00,
2013-07-27 10:33:00,70.0,63.0,30.29,ESE,105,2.0,5.0,79,0.00,,,0.08,,2013-07-27 15:33:00,
2013-07-27 10:44:00,70.0,63.0,30.29,ESE,105,2.0,5.0,79,0.00,,,0.08,,2013-07-27 15:44:00,
2013-07-27 10:53:00,73.0,63.0,30.27,ENE,59,0.0,4.0,72,0.00,,,0.08,,2013-07-27 15:53:00,
2013-07-27 11:02:00,73.0,63.0,30.27,ENE,59,0.0,4.0,72,0.00,,,0.08,,2013-07-27 16:02:00,
2013-07-27 11:12:00,73.0,63.0,30.27,ENE,59,0.0,4.0,72,0.00,,,0.08,,2013-07-27 16:12:00,
2013-07-27 11:22:00,73.0,63.0,30.27,NNE,24,0.0,4.0,70,0.00,,,0.08,,2013-07-27 16:22:00,
2013-07-27 11:33:00,73.0,63.0,30.27,NNE,24,0.0,4.0,70,0.00,,,0.08,,2013-07-27 16:33:00,
2013-07-27 11:43:00,73.0,63.0,30.27,NNE,24,0.0,4.0,70,0.00,,,0.08,,2013-07-27 16:43:00,
2013-07-27 11:54:00,74.0,63.0,30.28,NW,314,2.0,6.0,68,0.00,,,0.08,,2013-07-27 16:54:00,
2013-07-27 12:02:00,74.0,63.0,30.28,NW,314,2.0,6.0,68,0.00,,,0.08,,2013-07-27 17:02:00,
2013-07-27 12:12:00,74.0,63.0,30.28,NW,314,2.0,6.0,68,0.00,,,0.08,,2013-07-27 17:12:00,
2013-07-27 12:22:00,76.0,63.0,30.27,ESE,107,1.0,8.0,65,0.00,,,0.08,,2013-07-27 17:22:00,
2013-07-27 12:32:00,76.0,63.0,30.27,ESE,107,1.0,8.0,65,0.00,,,0.08,,2013-07-27 17:32:00,
2013-07-27 12:43:00,76.0,63.0,30.27,ESE,107,1.0,8.0,65,0.00,,,0.08,,2013-07-27 17:43:00,
2013-07-27 12:54:00,79.0,63.0,30.27,ESE,113,8.0,13.0,58,0.00,,,0.08,,2013-07-27 17:54:00,
2013-07-27 13:02:00,79.0,63.0,30.27,ESE,113,8.0,13.0,58,0.00,,,0.08,,2013-07-27 18:02:00,
2013-07-27 13:12:00,79.0,63.0,30.27,ESE,113,8.0,13.0,58,0.00,,,0.08,,2013-07-27 18:12:00,
2013-07-27 13:22:00,79.0,62.0,30.26,East,99,8.0,11.0,57,0.00,,,0.08,,2013-07-27 18:22:00,
2013-07-27 13:32:00,79.0,62.0,30.26,East,99,8.0,11.0,57,0.00,,,0.08,,2013-07-27 18:32:00,
2013-07-27 13:43:00,79.0,62.0,30.26,East,99,8.0,11.0,57,0.00,,,0.08,,2013-07-27 18:43:00,
2013-07-27 13:53:00,81.0,62.0,30.25,ESE,112,4.0,12.0,53,0.00,,,0.08,,2013-07-27 18:53:00,
2013-07-27 14:02:00,81.0,62.0,30.25,ESE,112,4.0,12.0,53,0.00,,,0.08,,2013-07-27 19:02:00,
2013-07-27 14:12:00,81.0,62.0,30.25,ESE,112,4.0,12.0,53,0.00,,,0.08,,2013-07-27 19:12:00,
2013-07-27 14:22:00,82.0,61.0,30.24,ESE,115,6.0,14.0,50,0.00,,,0.04,,2013-07-27 19:22:00,
2013-07-27 14:32:00,82.0,61.0,30.24,ESE,115,6.0,14.0,50,0.00,,,0.04,,2013-07-27 19:32:00,
2013-07-27 14:43:00,82.0,61.0,30.24,ESE,115,6.0,14.0,50,0.00,,,0.04,,2013-07-27 19:43:00,
2013-07-27 14:53:00,83.0,61.0,30.22,ESE,107,4.0,13.0,48,0.00,,,0.04,,2013-07-27 19:53:00,
2013-07-27 15:02:00,83.0,61.0,30.22,ESE,107,4.0,13.0,48,0.00,,,0.04,,2013-07-27 20:02:00,
2013-07-27 15:12:00,83.0,61.0,30.22,ESE,107,4.0,13.0,48,0.00,,,0.04,,2013-07-27 20:12:00,
2013-07-27 15:22:00,84.0,60.0,30.20,SE,125,3.0,12.0,45,0.00,,,0.02,,2013-07-27 20:22:00,
2013-07-27 15:32:00,84.0,60.0,30.20,SE,125,3.0,12.0,45,0.00,,,0.02,,2013-07-27 20:32:00,
2013-07-27 15:43:00,84.0,60.0,30.20,SE,125,3.0,12.0,45,0.00,,,0.02,,2013-07-27 20:43:00,
2013-07-27 15:52:00,85.0,60.0,30.18,ESE,103,7.0,13.0,43,0.00,,,0.02,,2013-07-27 20:52:00,
2013-07-27 16:02:00,85.0,60.0,30.18,ESE,103,7.0,13.0,43,0.00,,,0.02,,2013-07-27 21:02:00,
2013-07-27 16:12:00,85.0,60.0,30.18,ESE,103,7.0,13.0,43,0.00,,,0.02,,2013-07-27 21:12:00,
2013-07-27 16:22:00,84.0,58.0,30.18,East,85,6.0,14.0,41,0.00,,,0.02,,2013-07-27 21:22:00,
2013-07-27 16:33:00,84.0,58.0,30.18,East,85,6.0,14.0,41,0.00,,,0.02,,2013-07-27 21:33:00,
2013-07-27 16:43:00,84.0,58.0,30.18,East,85,6.0,14.0,41,0.00,,,0.02,,2013-07-27 21:43:00,
2013-07-27 16:53:00,83.0,58.0,30.16,North,9,4.0,14.0,42,0.00,,,0.02,,2013-07-27 21:53:00,
2013-07-27 17:02:00,83.0,58.0,30.16,North,9,4.0,14.0,42,0.00,,,0.02,,2013-07-27 22:02:00,
2013-07-27 17:12:00,83.0,58.0,30.16,North,9,4.0,14.0,42,0.00,,,0.02,,2013-07-27 22:12:00,
2013-07-27 17:22:00,82.0,58.0,30.16,NE,44,7.0,15.0,44,0.00,,,0.02,,2013-07-27 22:22:00,
2013-07-27 17:32:00,82.0,58.0,30.16,NE,44,7.0,15.0,44,0.00,,,0.02,,2013-07-27 22:32:00,
2013-07-27 17:43:00,82.0,58.0,30.16,NE,44,7.0,15.0,44,0.00,,,0.02,,2013-07-27 22:43:00,
2013-07-27 17:53:00,81.0,58.0,30.15,NNW,339,3.0,15.0,45,0.00,,,0.02,,2013-07-27 22:53:00,
2013-07-27 18:02:00,81.0,58.0,30.15,NNW,339,3.0,15.0,45,0.00,,,0.02,,2013-07-27 23:02:00,
2013-07-27 18:12:00,81.0,58.0,30.15,NNW,339,3.0,15.0,45,0.00,,,0.02,,2013-07-27 23:12:00,
2013-07-27 18:22:00,82.0,59.0,30.15,NNE,26,3.0,7.0,45,0.00,,,0.02,,2013-07-27 23:22:00,
2013-07-27 18:32:00,82.0,59.0,30.15,NNE,26,3.0,7.0,45,0.00,,,0.02,,2013-07-27 23:32:00,
2013-07-27 18:44:00,82.0,59.0,30.15,NNE,26,3.0,7.0,45,0.00,,,0.02,,2013-07-27 23:44:00,
2013-07-27 18:53:00,80.0,55.0,30.14,ESE,115,2.0,10.0,43,0.00,,,0.02,,2013-07-27 23:53:00,
2013-07-27 19:02:00,80.0,55.0,30.14,ESE,115,2.0,10.0,43,0.00,,,0.02,,2013-07-28 00:02:00,
2013-07-27 19:12:00,80.0,55.0,30.14,ESE,115,2.0,10.0,43,0.00,,,0.02,,2013-07-28 00:12:00,
2013-07-27 19:22:00,80.0,57.0,30.14,SSW,203,2.0,12.0,45,0.00,,,0.00,,2013-07-28 00:22:00,
2013-07-27 19:32:00,80.0,57.0,30.14,SSW,203,2.0,12.0,45,0.00,,,0.00,,2013-07-28 00:32:00,
2013-07-27 19:44:00,80.0,57.0,30.14,SSW,203,2.0,12.0,45,0.00,,,0.00,,2013-07-28 00:44:00,
2013-07-27 19:53:00,79.0,56.0,30.14,ESE,107,4.0,10.0,46,0.00,,,0.00,,2013-07-28 00:53:00,
2013-07-27 20:02:00,79.0,56.0,30.14,ESE,107,4.0,10.0,46,0.00,,,0.00,,2013-07-28 01:02:00,
2013-07-27 20:12:00,79.0,56.0,30.14,ESE,107,4.0,10.0,46,0.00,,,0.00,,2013-07-28 01:12:00,
2013-07-27 20:22:00,78.0,54.0,30.14,East,79,3.0,10.0,44,0.00,,,0.00,,2013-07-28 01:22:00,
2013-07-27 20:32:00,78.0,54.0,30.14,East,79,3.0,10.0,44,0.00,,,0.00,,2013-07-28 01:32:00,
2013-07-27 20:43:00,78.0,54.0,30.14,East,79,3.0,10.0,44,0.00,,,0.00,,2013-07-28 01:43:00,
2013-07-27 20:53:00,78.0,54.0,30.15,East,98,1.0,4.0,43,0.00,,,0.00,,2013-07-28 01:53:00,
2013-07-27 21:02:00,78.0,54.0,30.15,East,98,1.0,4.0,43,0.00,,,0.00,,2013-07-28 02:02:00,
2013-07-27 21:12:00,78.0,54.0,30.15,East,98,1.0,4.0,43,0.00,,,0.00,,2013-07-28 02:12:00,
2013-07-27 21:22:00,77.0,55.0,30.16,ESE,108,0.0,1.0,47,0.00,,,0.00,,2013-07-28 02:22:00,
2013-07-27 21:32:00,77.0,55.0,30.16,ESE,108,0.0,1.0,47,0.00,,,0.00,,2013-07-28 02:32:00,
2013-07-27 21:42:00,77.0,55.0,30.16,ESE,108,0.0,1.0,47,0.00,,,0.00,,2013-07-28 02:42:00,
2013-07-27 21:53:00,76.0,56.0,30.15,East,92,0.0,2.0,50,0.00,,,0.00,,2013-07-28 02:53:00,
2013-07-27 22:02:00,76.0,56.0,30.15,East,92,0.0,2.0,50,0.00,,,0.00,,2013-07-28 03:02:00,
2013-07-27 22:12:00,76.0,56.0,30.15,East,92,0.0,2.0,50,0.00,,,0.00,,2013-07-28 03:12:00,
2013-07-27 22:22:00,75.0,58.0,30.16,East,95,1.0,2.0,55,0.00,,,0.00,,2013-07-28 03:22:00,
2013-07-27 22:32:00,75.0,58.0,30.16,East,95,1.0,2.0,55,0.00,,,0.00,,2013-07-28 03:32:00,
2013-07-27 22:42:00,75.0,58.0,30.16,East,95,1.0,2.0,55,0.00,,,0.00,,2013-07-28 03:42:00,
2013-07-27 22:53:00,74.0,57.0,30.16,SE,134,0.0,4.0,55,0.00,,,0.00,,2013-07-28 03:53:00,
2013-07-27 23:02:00,74.0,57.0,30.16,SE,134,0.0,4.0,55,0.00,,,0.00,,2013-07-28 04:02:00,
2013-07-27 23:12:00,74.0,57.0,30.16,SE,134,0.0,4.0,55,0.00,,,0.00,,2013-07-28 04:12:00,
2013-07-27 23:22:00,74.0,57.0,30.16,SSE,165,0.0,7.0,55,0.00,,,0.00,,2013-07-28 04:22:00,
2013-07-27 23:32:00,74.0,57.0,30.16,SSE,165,0.0,7.0,55,0.00,,,0.00,,2013-07-28 04:32:00,
2013-07-27 23:43:00,74.0,57.0,30.16,SSE,165,0.0,7.0,55,0.00,,,0.00,,2013-07-28 04:43:00,
2013-07-27 23:53:00,73.0,56.0,30.17,SSW,203,0.0,1.0,55,0.00,,,0.00,,2013-07-28 04:53:00,